Time,TemperatureF,DewpointF,PressureIn,WindDirection,WindDirectionDegrees,WindSpeedMPH,WindSpeedGustMPH,Humidity,HourlyPrecipIn,Conditions,Clouds,dailyrainin,SoftwareType,DateUTC
2013-03-12 00:03:00,50.0,49.0,29.79,NE,37,0.0,2.0,97,0.09,,,0.87,,2013-03-12 04:03:00,
2013-03-12 00:13:00,50.0,49.0,29.79,NE,37,0.0,2.0,97,0.09,,,0.87,,2013-03-12 04:13:00,
2013-03-12 00:22:00,49.0,48.0,29.80,NNW,341,0.0,1.0,96,0.08,,,0.88,,2013-03-12 04:22:00,
2013-03-12 00:32:00,49.0,48.0,29.80,NNW,341,0.0,1.0,96,0.08,,,0.88,,2013-03-12 04:32:00,
2013-03-12 00:43:00,49.0,48.0,29.80,NNW,341,0.0,1.0,96,0.08,,,0.88,,2013-03-12 04:43:00,
2013-03-12 00:52:00,48.0,47.0,29.80,NW,321,0.0,1.0,97,0.04,,,0.90,,2013-03-12 04:52:00,
2013-03-12 01:03:00,47.0,46.0,29.79,NNE,23,0.0,1.0,97,0.04,,,0.91,,2013-03-12 05:03:00,
2013-03-12 01:12:00,47.0,46.0,29.79,NNE,23,0.0,1.0,97,0.04,,,0.91,,2013-03-12 05:12:00,
2013-03-12 01:22:00,47.0,46.0,29.79,WNW,284,0.0,3.0,97,0.03,,,0.91,,2013-03-12 05:22:00,
2013-03-12 01:32:00,46.0,45.0,29.79,WNW,294,0.0,2.0,96,0.01,,,0.91,,2013-03-12 05:32:00,
2013-03-12 01:42:00,46.0,45.0,29.79,WNW,294,0.0,2.0,96,0.01,,,0.91,,2013-03-12 05:42:00,
2013-03-12 01:52:00,45.0,44.0,29.79,NNW,348,0.0,3.0,96,0.02,,,0.92,,2013-03-12 05:52:00,
2013-03-12 02:02:00,45.0,44.0,29.80,East,96,0.0,2.0,96,0.01,,,0.92,,2013-03-12 06:02:00,
2013-03-12 02:12:00,45.0,44.0,29.80,East,96,0.0,2.0,96,0.01,,,0.92,,2013-03-12 06:12:00,
2013-03-12 02:22:00,44.0,43.0,29.80,East,95,0.0,1.0,96,0.01,,,0.92,,2013-03-12 06:22:00,
2013-03-12 02:32:00,43.0,42.0,29.80,SSW,202,0.0,3.0,95,0.02,,,0.93,,2013-03-12 06:32:00,
2013-03-12 02:42:00,43.0,42.0,29.80,SSW,202,0.0,3.0,95,0.02,,,0.93,,2013-03-12 06:42:00,
2013-03-12 02:52:00,42.0,41.0,29.81,ENE,68,0.0,2.0,95,0.01,,,0.93,,2013-03-12 06:52:00,
2013-03-12 03:02:00,42.0,41.0,29.81,South,169,0.0,2.0,95,0.01,,,0.93,,2013-03-12 07:02:00,
2013-03-12 03:12:00,42.0,41.0,29.81,South,169,0.0,2.0,95,0.01,,,0.93,,2013-03-12 07:12:00,
2013-03-12 03:22:00,41.0,40.0,29.81,NE,49,0.0,2.0,95,0.00,,,0.93,,2013-03-12 07:22:00,
2013-03-12 03:32:00,41.0,40.0,29.81,NE,48,0.0,2.0,96,0.00,,,0.93,,2013-03-12 07:32:00,
2013-03-12 03:42:00,41.0,40.0,29.81,NE,48,0.0,2.0,96,0.00,,,0.93,,2013-03-12 07:42:00,
2013-03-12 03:52:00,41.0,40.0,29.81,NE,42,0.0,2.0,96,0.00,,,0.93,,2013-03-12 07:52:00,
2013-03-12 04:02:00,40.0,39.0,29.81,NW,315,0.0,3.0,96,0.00,,,0.93,,2013-03-12 08:02:00,
2013-03-12 04:13:00,40.0,39.0,29.81,NW,315,0.0,3.0,96,0.00,,,0.93,,2013-03-12 08:13:00,
2013-03-12 04:22:00,40.0,39.0,29.81,NNW,327,0.0,2.0,96,0.00,,,0.93,,2013-03-12 08:22:00,
2013-03-12 04:33:00,40.0,39.0,29.81,NW,307,0.0,3.0,96,0.00,,,0.93,,2013-03-12 08:33:00,
2013-03-12 04:42:00,40.0,39.0,29.81,NW,307,0.0,3.0,96,0.00,,,0.93,,2013-03-12 08:42:00,
2013-03-12 04:52:00,39.0,38.0,29.81,NNE,13,0.0,3.0,96,0.00,,,0.93,,2013-03-12 08:52:00,
2013-03-12 05:03:00,38.0,37.0,29.82,NE,35,0.0,3.0,95,0.00,,,0.93,,2013-03-12 09:03:00,
2013-03-12 05:12:00,38.0,37.0,29.82,NE,35,0.0,3.0,95,0.00,,,0.93,,2013-03-12 09:12:00,
2013-03-12 05:22:00,38.0,37.0,29.82,NNW,333,1.0,4.0,96,0.00,,,0.93,,2013-03-12 09:22:00,
2013-03-12 05:33:00,38.0,37.0,29.82,SE,127,0.0,4.0,96,0.00,,,0.93,,2013-03-12 09:33:00,
2013-03-12 05:42:00,38.0,37.0,29.82,SE,127,0.0,4.0,96,0.00,,,0.93,,2013-03-12 09:42:00,
2013-03-12 05:52:00,37.0,36.0,29.83,North,5,1.0,4.0,95,0.00,,,0.93,,2013-03-12 09:52:00,
2013-03-12 06:02:00,37.0,36.0,29.83,WNW,286,0.0,2.0,96,0.00,,,0.93,,2013-03-12 10:02:00,
2013-03-12 06:12:00,37.0,36.0,29.83,WNW,286,0.0,2.0,96,0.00,,,0.93,,2013-03-12 10:12:00,
2013-03-12 06:22:00,37.0,36.0,29.83,NW,304,1.0,3.0,95,0.00,,,0.93,,2013-03-12 10:22:00,
2013-03-12 06:32:00,36.0,35.0,29.84,NE,43,0.0,2.0,95,0.00,,,0.93,,2013-03-12 10:32:00,
2013-03-12 06:42:00,36.0,35.0,29.84,NE,43,0.0,2.0,95,0.00,,,0.93,,2013-03-12 10:42:00,
2013-03-12 06:52:00,36.0,35.0,29.85,NNE,20,1.0,4.0,95,0.00,,,0.93,,2013-03-12 10:52:00,
2013-03-12 07:02:00,36.0,35.0,29.86,NNW,347,0.0,3.0,95,0.00,,,0.93,,2013-03-12 11:02:00,
2013-03-12 07:12:00,36.0,35.0,29.86,NNW,347,0.0,3.0,95,0.00,,,0.93,,2013-03-12 11:12:00,
2013-03-12 07:22:00,36.0,35.0,29.86,NNW,329,0.0,3.0,95,0.00,,,0.93,,2013-03-12 11:22:00,
2013-03-12 07:32:00,36.0,35.0,29.87,NW,304,0.0,3.0,95,0.00,,,0.93,,2013-03-12 11:32:00,
2013-03-12 07:42:00,36.0,35.0,29.87,NW,304,0.0,3.0,95,0.00,,,0.93,,2013-03-12 11:42:00,
2013-03-12 07:52:00,35.0,33.0,29.89,North,5,0.0,4.0,94,0.00,,,0.93,,2013-03-12 11:52:00,
2013-03-12 08:03:00,35.0,34.0,29.89,East,87,0.0,3.0,95,0.00,,,0.93,,2013-03-12 12:03:00,
2013-03-12 08:12:00,35.0,34.0,29.89,East,87,0.0,3.0,95,0.00,,,0.93,,2013-03-12 12:12:00,
2013-03-12 08:22:00,35.0,34.0,29.90,NE,36,0.0,2.0,95,0.00,,,0.93,,2013-03-12 12:22:00,
2013-03-12 08:32:00,35.0,34.0,29.90,WNW,293,0.0,1.0,95,0.00,,,0.93,,2013-03-12 12:32:00,
2013-03-12 08:42:00,35.0,34.0,29.90,WNW,293,0.0,1.0,95,0.00,,,0.93,,2013-03-12 12:42:00,
2013-03-12 08:52:00,35.0,33.0,29.90,West,281,0.0,2.0,94,0.00,,,0.93,,2013-03-12 12:52:00,
2013-03-12 09:02:00,35.0,33.0,29.90,West,281,0.0,2.0,94,0.00,,,0.93,,2013-03-12 13:02:00,
2013-03-12 09:12:00,35.0,33.0,29.90,West,281,0.0,2.0,94,0.00,,,0.93,,2013-03-12 13:12:00,
2013-03-12 09:22:00,35.0,33.0,29.91,NW,325,0.0,1.0,94,0.00,,,0.93,,2013-03-12 13:22:00,
2013-03-12 09:33:00,35.0,33.0,29.92,NW,326,0.0,2.0,93,0.00,,,0.93,,2013-03-12 13:33:00,
2013-03-12 09:43:00,35.0,33.0,29.92,NW,326,0.0,2.0,93,0.00,,,0.93,,2013-03-12 13:43:00,
2013-03-12 09:52:00,35.0,33.0,29.92,NW,326,0.0,1.0,93,0.00,,,0.93,,2013-03-12 13:52:00,
2013-03-12 10:02:00,36.0,34.0,29.92,NW,326,0.0,1.0,93,0.00,,,0.93,,2013-03-12 14:02:00,
2013-03-12 10:12:00,36.0,34.0,29.92,NW,326,0.0,1.0,93,0.00,,,0.93,,2013-03-12 14:12:00,
2013-03-12 10:22:00,36.0,34.0,29.92,NW,326,0.0,2.0,92,0.00,,,0.93,,2013-03-12 14:22:00,
2013-03-12 10:33:00,37.0,35.0,29.93,NW,321,0.0,3.0,92,0.00,,,0.93,,2013-03-12 14:33:00,
2013-03-12 10:42:00,37.0,35.0,29.93,NW,321,0.0,3.0,92,0.00,,,0.93,,2013-03-12 14:42:00,
2013-03-12 10:53:00,37.0,34.0,29.93,NW,321,0.0,2.0,89,0.00,,,0.93,,2013-03-12 14:53:00,
2013-03-12 11:03:00,38.0,35.0,29.94,NNE,21,0.0,3.0,88,0.00,,,0.93,,2013-03-12 15:03:00,
2013-03-12 11:13:00,38.0,35.0,29.94,NNE,21,0.0,3.0,88,0.00,,,0.93,,2013-03-12 15:13:00,
2013-03-12 11:22:00,38.0,34.0,29.94,NW,312,0.0,3.0,86,0.00,,,0.93,,2013-03-12 15:22:00,
2013-03-12 11:32:00,39.0,35.0,29.95,ENE,58,0.0,3.0,86,0.00,,,0.93,,2013-03-12 15:32:00,
2013-03-12 11:42:00,39.0,35.0,29.95,ENE,58,0.0,3.0,86,0.00,,,0.93,,2013-03-12 15:42:00,
2013-03-12 11:52:00,40.0,35.0,29.96,NNW,334,0.0,3.0,83,0.00,,,0.93,,2013-03-12 15:52:00,
2013-03-12 12:03:00,40.0,36.0,29.96,North,355,0.0,4.0,84,0.00,,,0.93,,2013-03-12 16:03:00,
2013-03-12 12:12:00,40.0,36.0,29.96,North,355,0.0,4.0,84,0.00,,,0.93,,2013-03-12 16:12:00,
2013-03-12 12:23:00,40.0,35.0,29.97,NNW,340,1.0,3.0,82,0.00,,,0.93,,2013-03-12 16:23:00,
2013-03-12 12:33:00,41.0,35.0,29.96,NNW,332,1.0,5.0,80,0.00,,,0.93,,2013-03-12 16:33:00,
2013-03-12 12:43:00,41.0,35.0,29.96,NNW,332,1.0,5.0,80,0.00,,,0.93,,2013-03-12 16:43:00,
2013-03-12 12:52:00,42.0,37.0,29.97,North,5,0.0,4.0,81,0.00,,,0.93,,2013-03-12 16:52:00,
2013-03-12 13:03:00,43.0,37.0,29.97,North,355,0.0,3.0,78,0.00,,,0.93,,2013-03-12 17:03:00,
2013-03-12 13:13:00,43.0,37.0,29.97,North,355,0.0,3.0,78,0.00,,,0.93,,2013-03-12 17:13:00,
2013-03-12 13:23:00,44.0,37.0,29.97,NW,323,0.0,5.0,75,0.00,,,0.93,,2013-03-12 17:23:00,
2013-03-12 13:34:00,44.0,37.0,29.97,NNW,343,1.0,3.0,75,0.00,,,0.93,,2013-03-12 17:34:00,
2013-03-12 13:44:00,44.0,37.0,29.97,NNW,343,1.0,3.0,75,0.00,,,0.93,,2013-03-12 17:44:00,
2013-03-12 13:53:00,44.0,37.0,29.97,NW,321,1.0,3.0,75,0.00,,,0.93,,2013-03-12 17:53:00,
2013-03-12 14:03:00,45.0,35.0,29.97,NNW,338,1.0,5.0,69,0.00,,,0.93,,2013-03-12 18:03:00,
2013-03-12 14:13:00,46.0,36.0,29.97,NNW,339,1.0,5.0,68,0.00,,,0.93,,2013-03-12 18:13:00,
2013-03-12 14:23:00,46.0,36.0,29.97,NNW,339,1.0,5.0,68,0.00,,,0.93,,2013-03-12 18:23:00,
2013-03-12 14:33:00,46.0,36.0,29.97,NNW,341,1.0,5.0,69,0.00,,,0.93,,2013-03-12 18:33:00,
2013-03-12 14:42:00,46.0,36.0,29.97,NNW,341,1.0,5.0,69,0.00,,,0.93,,2013-03-12 18:42:00,
2013-03-12 14:53:00,47.0,36.0,29.98,SSW,194,2.0,7.0,66,0.00,,,0.93,,2013-03-12 18:53:00,
2013-03-12 15:04:00,47.0,36.0,29.97,SW,219,1.0,6.0,66,0.00,,,0.93,,2013-03-12 19:04:00,
2013-03-12 15:13:00,47.0,36.0,29.97,SW,219,1.0,6.0,66,0.00,,,0.93,,2013-03-12 19:13:00,
2013-03-12 15:23:00,47.0,36.0,29.97,NNW,343,1.0,7.0,65,0.00,,,0.93,,2013-03-12 19:23:00,
2013-03-12 15:33:00,47.0,35.0,29.97,NE,49,2.0,8.0,63,0.00,,,0.93,,2013-03-12 19:33:00,
2013-03-12 15:43:00,47.0,35.0,29.97,NE,49,2.0,8.0,63,0.00,,,0.93,,2013-03-12 19:43:00,
2013-03-12 15:53:00,47.0,35.0,29.97,NE,49,2.0,8.0,63,0.00,,,0.93,,2013-03-12 19:53:00,
2013-03-12 16:02:00,48.0,36.0,29.96,South,180,1.0,6.0,62,0.00,,,0.93,,2013-03-12 20:02:00,
2013-03-12 16:13:00,48.0,36.0,29.96,South,180,1.0,6.0,62,0.00,,,0.93,,2013-03-12 20:13:00,
2013-03-12 16:23:00,49.0,35.0,29.96,WSW,244,0.0,5.0,58,0.00,,,0.93,,2013-03-12 20:23:00,
2013-03-12 16:33:00,49.0,37.0,29.96,NW,310,1.0,7.0,62,0.00,,,0.90,,2013-03-12 20:33:00,
2013-03-12 16:42:00,49.0,37.0,29.96,NW,310,1.0,7.0,62,0.00,,,0.90,,2013-03-12 20:42:00,
2013-03-12 16:52:00,50.0,35.0,29.96,SSW,209,1.0,6.0,56,0.00,,,0.90,,2013-03-12 20:52:00,
2013-03-12 17:03:00,50.0,35.0,29.96,SSW,209,1.0,6.0,56,0.00,,,0.90,,2013-03-12 21:03:00,
2013-03-12 17:13:00,50.0,35.0,29.96,SSW,209,1.0,6.0,56,0.00,,,0.90,,2013-03-12 21:13:00,
2013-03-12 17:22:00,50.0,36.0,29.96,NNW,333,2.0,6.0,58,0.00,,,0.90,,2013-03-12 21:22:00,
2013-03-12 17:33:00,50.0,36.0,29.96,NE,51,1.0,7.0,59,0.00,,,0.55,,2013-03-12 21:33:00,
2013-03-12 17:43:00,50.0,36.0,29.96,NE,51,1.0,7.0,59,0.00,,,0.55,,2013-03-12 21:43:00,
2013-03-12 17:52:00,50.0,35.0,29.97,SSE,157,2.0,5.0,56,0.00,,,0.55,,2013-03-12 21:52:00,
2013-03-12 18:03:00,50.0,36.0,29.98,NNW,346,1.0,5.0,58,0.00,,,0.55,,2013-03-12 22:03:00,
2013-03-12 18:13:00,50.0,36.0,29.98,NNW,346,1.0,5.0,58,0.00,,,0.55,,2013-03-12 22:13:00,
2013-03-12 18:23:00,49.0,34.0,29.98,South,182,0.0,5.0,57,0.00,,,0.55,,2013-03-12 22:23:00,
2013-03-12 18:33:00,49.0,34.0,29.99,NNW,344,1.0,4.0,56,0.00,,,0.40,,2013-03-12 22:33:00,
2013-03-12 18:43:00,49.0,34.0,29.99,NNW,344,1.0,4.0,56,0.00,,,0.40,,2013-03-12 22:43:00,
2013-03-12 18:53:00,48.0,33.0,30.00,WNW,300,0.0,4.0,56,0.00,,,0.40,,2013-03-12 22:53:00,
2013-03-12 19:03:00,48.0,33.0,30.00,NNW,337,0.0,5.0,56,0.00,,,0.40,,2013-03-12 23:03:00,
2013-03-12 19:12:00,48.0,33.0,30.00,NNW,337,0.0,5.0,56,0.00,,,0.40,,2013-03-12 23:12:00,
2013-03-12 19:23:00,48.0,33.0,30.00,NW,307,0.0,5.0,56,0.00,,,0.40,,2013-03-12 23:23:00,
2013-03-12 19:34:00,47.0,32.0,30.01,NE,42,0.0,2.0,56,0.00,,,0.21,,2013-03-12 23:34:00,
2013-03-12 19:43:00,47.0,32.0,30.01,NE,42,0.0,2.0,56,0.00,,,0.21,,2013-03-12 23:43:00,
2013-03-12 19:52:00,47.0,33.0,30.01,NNW,340,0.0,2.0,58,0.00,,,0.21,,2013-03-12 23:52:00,
2013-03-12 20:03:00,47.0,33.0,30.01,NNW,340,0.0,2.0,58,0.00,,,0.21,,2013-03-13 00:03:00,
2013-03-12 20:13:00,47.0,33.0,30.01,NNW,340,0.0,2.0,58,0.00,,,0.21,,2013-03-13 00:13:00,
2013-03-12 20:23:00,46.0,34.0,30.02,West,266,0.0,1.0,62,0.00,,,0.21,,2013-03-13 00:23:00,
2013-03-12 20:33:00,45.0,34.0,30.02,West,266,0.0,0.0,65,0.00,,,0.17,,2013-03-13 00:33:00,
2013-03-12 20:42:00,45.0,34.0,30.02,West,266,0.0,0.0,65,0.00,,,0.17,,2013-03-13 00:42:00,
2013-03-12 20:53:00,44.0,33.0,30.03,West,266,0.0,0.0,66,0.00,,,0.17,,2013-03-13 00:53:00,
2013-03-12 21:03:00,43.0,33.0,30.03,West,266,0.0,0.0,68,0.00,,,0.17,,2013-03-13 01:03:00,
2013-03-12 21:13:00,43.0,33.0,30.03,West,266,0.0,0.0,68,0.00,,,0.17,,2013-03-13 01:13:00,
2013-03-12 21:22:00,42.0,33.0,30.03,West,266,0.0,0.0,71,0.00,,,0.17,,2013-03-13 01:22:00,
2013-03-12 21:33:00,41.0,33.0,30.04,West,266,0.0,0.0,72,0.00,,,0.17,,2013-03-13 01:33:00,
2013-03-12 21:43:00,41.0,33.0,30.04,West,266,0.0,0.0,72,0.00,,,0.17,,2013-03-13 01:43:00,
2013-03-12 21:52:00,41.0,33.0,30.05,West,266,0.0,1.0,74,0.00,,,0.17,,2013-03-13 01:52:00,
2013-03-12 22:03:00,41.0,33.0,30.05,West,279,0.0,2.0,72,0.00,,,0.17,,2013-03-13 02:03:00,
2013-03-12 22:12:00,41.0,33.0,30.05,West,279,0.0,2.0,72,0.00,,,0.17,,2013-03-13 02:12:00,
2013-03-12 22:22:00,41.0,32.0,30.05,West,279,0.0,1.0,70,0.00,,,0.17,,2013-03-13 02:22:00,
2013-03-12 22:32:00,41.0,32.0,30.06,West,279,0.0,0.0,71,0.00,,,0.17,,2013-03-13 02:32:00,
2013-03-12 22:43:00,41.0,32.0,30.06,West,279,0.0,0.0,71,0.00,,,0.17,,2013-03-13 02:43:00,
2013-03-12 22:52:00,41.0,32.0,30.06,West,279,0.0,0.0,71,0.00,,,0.17,,2013-03-13 02:52:00,
2013-03-12 23:02:00,40.0,32.0,30.07,West,279,0.0,1.0,72,0.00,,,0.17,,2013-03-13 03:02:00,
2013-03-12 23:13:00,40.0,32.0,30.07,West,279,0.0,1.0,72,0.00,,,0.17,,2013-03-13 03:13:00,
2013-03-12 23:22:00,40.0,32.0,30.07,West,279,0.0,1.0,73,0.00,,,0.17,,2013-03-13 03:22:00,
2013-03-12 23:32:00,39.0,31.0,30.07,West,279,0.0,1.0,73,0.00,,,0.11,,2013-03-13 03:32:00,
2013-03-12 23:42:00,39.0,31.0,30.07,West,279,0.0,1.0,73,0.00,,,0.11,,2013-03-13 03:42:00,
2013-03-12 23:52:00,39.0,31.0,30.08,West,279,0.0,0.0,73,0.00,,,0.11,,2013-03-13 03:52:00,